Terminal Aerodrome Forecast
Issued by NWS

Home | Current Version | Previous Version | Text Only | Print | Product List | Glossary On
Versions: 1 2 3 4 5 6 7 8 9 10 11 12 13 14 15 16 17 18
000
FTUS41 KCAR 220500
TAFFVE
TAF
KFVE 220536Z 2206/2306 15005KT P6SM OVC007
     FM220800 17005KT P6SM OVC004
     FM221000 19005KT 3SM -SHRA OVC003
     FM221400 22010KT P6SM -SHRA BKN008
     FM221500 23011KT P6SM BKN008
     FM221900 26013KT P6SM BKN050=

USA.gov is the U.S. government's official web portal to all federal, state and local government web resources and services.